User: anonymous   Login
Location: Chipmunk Meadow
(41.1540°N, 122.8814°W)
Time: 08:42:17
(UTC+00:00)
Language:

RESURS DK-1 - Orbit

View from above orbital plane
View from above orbital plane
View from above satellite
View from above satellite

Ground track
Ground track

The orbit data is extracted from the following two-line orbital elements,

1 29228U 06021A   24169.94958630  .00003042  00000-0  20766-3 0  9991
2 29228  69.9360  59.7975 0004408 331.2533  28.8386 15.07313407992439
Epoch (UTC): 17 June 2024 22:47:24
Eccentricity: 0.0004408
inclination: 69.9360°
perigee height: 541 km
apogee height: 547 km
right ascension of ascending node: 59.7975°
argument of perigee: 331.2533°
revolutions per day: 15.07313407
mean anomaly at epoch: 28.8386°
orbit number at epoch: 99243

The dashed part of the orbit path shows where the satellite is in the earth's shadow,  

DLR